map of TGI home
TGI - Airport
Location
City:  Tingo María, Huánuco, Perú
Name:Tingo María Airport
ICAO:SPGM
IATA:TGI

Details
Type:Airport (Aerodrome, Airfield)
Use:Public/Civil
Latitude:9°17'22"S (-9.289374)
Longitude:76°00'18"W (-76.005041)
Elevation:2146 ft (654 m)
Variation:3.30°W (WMM2015 magnetic declination)
-0.17° annual change
Runways:1
Longest:6890 × 98 ft (2100 × 30 m)

Time
Time Zone:UTC-5
Local Time:

Weather
METAR:SPGM 222100Z /////KT 9999 FEW040 29/20 Q1013 RMK TX/// BIRD HAZARD RWY19 PP000
TAF:SPGM 221100Z 2212/2312 VRB02KT 9999 SCT020 BKN090 TX30/2219Z TN18/2311Z
TEMPO 2212/2214 00000KT 3000 BR SCT015 OVC080

Related Locations
Nearby:
Farthest:PQC: 12369 mi / 19906 km
Phú Quóc [Intl], VN

Find:

   beyond  
but within

Other Information
Maps:
NOTAMs:
Links:
Sources:

  
flag of Perú
flag of Huánuco
  

Sectional Chart

Flight Planning
at skyvector.com

Satellite Image

Google Maps Satellite view

 

Copyright © 2004-2017 Karl L. Swartz. All rights reserved.
The Great Circle Mapper name and logo are trademarks of the Great Circle Mapper.
All other trademarks mentioned herein belong to their respective owners.
Please see credits for attibutions and further copyright information.

  Follow gcmap on Facebook Follow gcmap on Twitter Follow gcmap on Google+ GCmap on LinkedIn

hCard Microformat

Geo Microformat